Total_Precipitation_Accumulation
1.35 1.31 1.40 1.65 1.75 1.83 2.09 2.20 2.07 2.00 1.95 1.83 1.68 1.53 1.42 1.34 1.33 1.31 1.70 2.24 2.81 3.49 3.95 3.84 3.40 2.88 2.70 2.80 2.70 2.57 2.45 2.67 3.28 3.46 3.41 3.37 3.25 3.28 3.08 2.71 2.46 2.38 2.36
1.35 1.36 1.31 1.48 1.77 1.88 1.95 1.97 1.90 1.95 1.95 1.88 1.74 1.67 1.60 1.40 1.48 1.47 1.57 1.67 1.95 2.46 3.25 3.73 3.54 3.08 2.85 2.80 2.67 2.59 2.48 2.51 3.15 3.45 3.49 3.43 3.32 3.32 2.94 2.61 2.53 2.41 2.43
1.34 1.32 1.24 1.37 1.63 1.86 1.92 1.91 1.87 1.96 1.88 1.73 1.76 1.75 1.71 1.57 1.60 1.65 1.62 1.59 1.53 1.81 2.47 3.20 3.39 3.25 3.19 3.19 2.96 2.81 2.74 2.79 2.93 3.24 3.42 3.46 3.37 3.25 2.88 2.58 2.40 2.47 2.54
1.30 1.42 1.38 1.34 1.54 1.80 2.06 2.22 2.09 2.05 2.00 1.88 1.90 1.85 1.72 1.73 1.71 1.69 1.64 1.64 1.66 1.55 1.76 2.15 2.62 3.09 3.34 3.52 3.33 3.15 2.86 2.59 2.55 2.84 3.17 3.40 3.47 3.24 3.12 2.86 2.57 2.54 2.73
1.25 1.49 1.62 1.54 1.61 1.85 1.99 2.07 2.11 2.00 1.99 1.94 1.79 1.75 1.67 1.74 1.79 1.62 1.61 1.61 1.69 1.66 1.60 1.45 1.68 2.20 2.80 3.49 3.68 3.34 3.10 2.76 2.48 2.56 2.81 3.13 3.36 3.26 3.12 2.92 2.68 2.52 2.58
1.47 1.61 1.74 1.77 1.81 1.94 1.96 2.14 2.39 2.23 2.03 1.98 1.80 1.70 1.65 1.68 1.71 1.69 1.73 1.73 1.73 1.70 1.66 1.49 1.45 1.43 1.88 2.60 3.28 3.23 3.25 3.10 2.71 2.56 2.67 2.78 2.99 3.14 2.91 2.84 2.84 2.65 2.55
1.75 1.87 1.98 2.04 2.00 1.94 2.02 2.23 2.65 2.61 2.31 2.07 2.05 1.94 1.80 1.75 1.77 1.72 1.82 1.89 1.79 1.74 1.78 1.70 1.56 1.43 1.36 1.56 2.17 2.82 3.11 3.29 3.07 2.80 2.72 2.80 2.83 3.04 2.93 2.78 2.98 2.96 2.81
1.88 1.94 2.15 2.26 2.22 2.22 2.30 2.37 2.67 2.89 2.66 2.45 2.47 2.67 2.44 2.23 1.86 1.56 1.59 1.67 1.71 1.75 1.74 1.76 1.67 1.54 1.49 1.43 1.36 1.92 2.45 2.87 3.11 2.98 2.82 2.82 2.87 3.01 3.12 3.04 3.04 3.22 3.16
2.10 2.04 2.12 2.29 2.32 2.32 2.39 2.60 2.90 3.27 3.28 2.97 2.72 2.94 2.73 2.44 2.32 1.80 1.47 1.49 1.62 1.73 1.75 1.81 1.78 1.65 1.59 1.63 1.42 1.32 1.57 2.07 2.78 3.07 3.09 3.05 3.03 3.07 3.15 3.20 3.40 3.37 3.33
2.04 2.05 2.09 2.24 2.40 2.55 2.69 2.73 2.70 3.16 3.54 3.36 3.12 2.72 2.44 2.31 2.45 2.32 1.84 1.51 1.53 1.57 1.64 1.65 1.76 1.85 1.79 1.71 1.55 1.19 1.13 1.44 2.30 3.13 3.42 3.30 3.11 3.06 3.28 3.46 3.51 3.26 3.17
2.17 2.07 2.04 2.07 2.10 2.22 2.38 2.52 2.59 2.86 3.15 3.36 3.32 3.08 2.77 2.58 2.13 2.14 2.22 1.97 1.69 1.44 1.42 1.54 1.73 1.81 1.83 1.70 1.68 1.33 1.10 1.06 1.47 2.33 3.10 3.35 3.29 3.25 3.49 3.61 3.41 3.21 3.10
2.15 2.02 1.94 1.99 1.99 1.98 2.11 2.24 2.38 2.66 2.89 3.06 3.15 3.06 2.96 2.89 2.58 2.28 2.08 2.04 1.90 1.65 1.47 1.47 1.54 1.62 1.69 1.64 1.52 1.53 1.29 1.04 1.06 1.36 1.94 2.66 3.02 3.17 3.33 3.49 3.45 3.24 3.29
1.72 1.69 1.61 1.63 1.73 1.79 1.95 2.02 1.99 2.08 2.30 2.54 2.74 2.82 2.86 2.77 2.69 2.60 2.43 2.18 1.91 1.57 1.55 1.46 1.42 1.53 1.55 1.65 1.61 1.76 1.41 1.17 1.05 1.06 1.28 1.64 2.03 2.42 2.92 3.21 3.44 3.47 3.54
1.37 1.34 1.33 1.33 1.39 1.45 1.63 1.84 1.86 1.89 1.97 2.09 2.17 2.47 2.67 2.64 2.67 2.46 2.35 2.37 2.10 1.75 1.56 1.36 1.24 1.29 1.36 1.49 1.76 1.87 1.37 1.26 1.10 1.12 1.20 1.22 1.40 1.61 2.06 2.59 2.89 3.15 3.35
1.11 1.09 1.13 1.22 1.29 1.28 1.37 1.49 1.68 1.74 1.82 1.91 1.91 2.10 2.29 2.38 2.40 2.24 2.26 2.36 2.27 1.96 1.70 1.50 1.40 1.31 1.29 1.34 1.65 1.53 1.37 1.34 1.22 1.19 1.18 1.16 1.19 1.26 1.48 1.77 2.03 2.21 2.39
0.99 1.00 0.99 1.04 1.12 1.16 1.26 1.37 1.40 1.50 1.59 1.76 1.93 2.05 2.11 2.15 2.23 2.16 2.15 2.26 2.26 2.09 1.82 1.56 1.39 1.30 1.34 1.28 1.49 1.38 1.47 1.55 1.25 1.12 1.07 1.10 1.08 1.05 1.06 1.16 1.33 1.49 1.58
0.85 0.86 0.89 0.99 1.01 1.04 1.10 1.11 1.14 1.20 1.27 1.38 1.44 1.58 1.81 2.01 2.12 2.14 2.20 2.26 2.28 2.14 1.87 1.69 1.43 1.38 1.47 1.40 1.41 1.38 1.48 1.52 1.28 1.16 1.02 0.99 0.99 0.97 1.00 0.98 1.00 1.09 1.19
0.80 0.82 0.89 0.94 0.94 1.00 1.03 1.01 1.03 1.09 1.20 1.28 1.30 1.33 1.45 1.71 1.88 2.02 2.13 2.17 2.22 2.18 1.98 1.93 1.80 1.54 1.45 1.42 1.52 1.63 1.57 1.55 1.48 1.45 1.30 1.09 1.02 0.99 0.97 0.96 0.92 0.89 0.91
0.96 1.00 0.99 1.02 0.97 0.98 1.00 0.99 1.04 1.09 1.10 1.15 1.19 1.20 1.31 1.43 1.58 1.69 1.82 1.95 2.02 2.14 2.13 1.92 1.95 1.86 1.61 1.54 1.54 1.64 1.72 1.83 1.69 1.62 1.64 1.46 1.24 1.15 1.08 1.01 0.94 0.91 0.88
0.86 0.89 0.96 1.03 1.10 1.14 1.11 1.07 1.11 1.13 1.08 1.08 1.13 1.20 1.23 1.26 1.45 1.67 1.78 1.89 1.94 2.05 2.19 2.08 1.97 1.91 1.76 1.68 1.63 1.67 1.85 1.95 1.94 1.68 1.56 1.49 1.43 1.32 1.21 1.12 1.02 1.00 0.99
0.78 0.76 0.84 0.93 1.03 1.12 1.16 1.16 1.04 0.98 1.00 1.06 1.05 1.03 1.10 1.22 1.36 1.57 1.66 1.89 1.93 2.07 2.16 2.16 2.02 1.83 1.71 1.68 1.63 1.61 1.78 2.01 2.05 1.95 1.77 1.54 1.43 1.27 1.18 1.16 1.15 1.13 1.10
0.85 0.79 0.77 0.76 0.79 0.84 1.05 1.06 0.94 0.82 0.87 1.00 1.07 1.05 1.04 1.11 1.19 1.29 1.33 1.58 1.78 1.92 2.02 2.00 1.98 1.82 1.66 1.61 1.70 1.73 1.76 1.85 1.98 1.93 1.74 1.77 1.68 1.48 1.31 1.18 1.27 1.33 1.33
0.85 0.84 0.75 0.67 0.67 0.74 0.82 0.80 0.86 0.83 0.84 0.91 1.00 1.07 1.11 1.08 1.16 1.24 1.27 1.38 1.49 1.55 1.69 1.79 1.78 1.69 1.66 1.60 1.69 1.73 1.74 1.70 1.63 1.71 1.67 1.76 1.77 1.60 1.39 1.29 1.33 1.29 1.29
0.77 0.83 0.75 0.70 0.74 0.75 0.78 0.80 0.84 0.81 0.91 0.99 0.99 0.98 1.11 1.16 1.21 1.37 1.36 1.43 1.38 1.32 1.36 1.44 1.57 1.60 1.56 1.64 1.72 1.90 1.99 1.86 1.72 1.73 1.70 1.65 1.59 1.51 1.34 1.31 1.35 1.21 1.17
0.72 0.67 0.70 0.84 0.84 0.86 0.97 0.88 0.79 0.79 0.91 0.98 0.93 0.96 1.08 1.16 1.37 1.50 1.49 1.48 1.38 1.31 1.39 1.50 1.61 1.69 1.69 1.74 1.83 1.90 1.95 1.97 1.89 1.83 1.69 1.57 1.44 1.43 1.39 1.30 1.26 1.29 1.23
0.71 0.73 0.75 0.87 0.91 0.93 0.98 0.86 0.82 0.86 0.94 1.01 0.99 0.97 1.19 1.18 1.32 1.39 1.43 1.54 1.52 1.39 1.37 1.37 1.41 1.47 1.47 1.55 1.81 1.84 1.97 2.06 1.91 1.84 1.68 1.58 1.53 1.64 1.70 1.46 1.25 1.21 1.20